• MPC Preparation (Info)

  • MPEC 2016-O154: 2014 OK394

    The following Minor Planet Electronic Circular may be linked-to from your own Web pages, but must not otherwise be redistributed electronically.

    A form allowing access to any MPEC is at the bottom of this page.


    Read MPEC 2016-O153 Read MPEC 2016-O155


    M.P.E.C. 2016-O154                               Issued 2016 July 17, 08:43 UT
    
         The Minor Planet Electronic Circulars contain information on unusual
             minor planets and routine data on comets.  They are published
        on behalf of Division F of the International Astronomical Union by the
              Minor Planet Center, Smithsonian Astrophysical Observatory,
                              Cambridge, MA 02138, U.S.A.
    
                 Prepared using the Tamkin Foundation Computer Network
    
                                  MPC@CFA.HARVARD.EDU
                URL https://www.minorplanetcenter.net/    ISSN 1523-6714
    
                                      2014 OK394
    
    Observations:
         K14Od4K  C2010 10 08.40802 02 44 13.639+11 27 13.31         21.8 wLEO154F51
         K14Od4K  C2010 10 08.42620 02 44 13.559+11 27 12.74         21.8 wLEO154F51
         K14Od4K  C2010 10 08.44439 02 44 13.470+11 27 12.11         21.8 wLEO154F51
         K14Od4K  C2010 10 08.46394 02 44 13.371+11 27 11.94         21.9 wLEO154F51
         K14Od4K  C2010 10 08.58781 02 44 12.789+11 27 08.69         21.8 rLEO154F51
         K14Od4K  C2011 12 02.25310 02 46 39.070+11 39 09.26         21.4 iLEO154F51
         K14Od4K  C2011 12 02.26590 02 46 39.024+11 39 09.00         21.5 iLEO154F51
         K14Od4K  C2011 12 02.27936 02 46 38.944+11 39 08.54         21.9 rLEO154F51
         K14Od4K  C2011 12 02.29136 02 46 38.882+11 39 08.44         21.6 rLEO154F51
         K14Od4K  C2012 12 07.23710 02 53 21.288+12 10 33.68         21.7 wLEO154F51
         K14Od4K  C2012 12 07.25211 02 53 21.215+12 10 33.31         21.7 wLEO154F51
         K14Od4K  C2012 12 07.26707 02 53 21.153+12 10 33.09         21.7 wLEO154F51
         K14Od4K  C2012 12 07.28215 02 53 21.073+12 10 32.96         21.7 wLEO154F51
         K14Od4K  C2013 11 24.29343 03 01 36.828+12 46 50.18         21.6 wLEO154F51
         K14Od4K  C2013 11 24.30671 03 01 36.759+12 46 49.74         21.8 wLEO154F51
         K14Od4K  C2013 11 24.32001 03 01 36.690+12 46 49.77         21.7 wLEO154F51
         K14Od4K  C2013 11 24.33336 03 01 36.624+12 46 49.39         21.7 wLEO154F51
         K14Od4K  C2014 02 28.23333 02 59 12.828+12 46 26.70         21.9 wLEO154F51
         K14Od4K  C2014 02 28.23730 02 59 12.849+12 46 26.76         21.9 wLEO154F51
         K14Od4K  C2014 02 28.24127 02 59 12.879+12 46 26.95         21.8 wLEO154F51
         K14Od4K  C2014 02 28.24523 02 59 12.884+12 46 27.09         21.9 wLEO154F51
         K14Od4K* C2014 07 28.60728 03 13 58.264+13 47 18.93         21.8 wLEO154F51
         K14Od4K  C2014 07 28.60992 03 13 58.266+13 47 18.75         21.9 wLEO154F51
         K14Od4K  C2014 07 28.61255 03 13 58.282+13 47 18.93         21.9 wLEO154F51
         K14Od4K  C2014 07 28.61517 03 13 58.266+13 47 18.79         21.9 wLEO154F51
         K14Od4K  C2014 08 31.54392 03 14 32.970+13 45 46.67         21.7 wLEO154F51
         K14Od4K  C2014 08 31.55695 03 14 32.961+13 45 46.56         21.9 wLEO154F51
         K14Od4K  C2014 08 31.56991 03 14 32.951+13 45 46.61         21.9 wLEO154F51
         K14Od4K  C2014 08 31.58287 03 14 32.940+13 45 46.53         21.8 wLEO154F51
         K14Od4K  C2014 09 23.51045 03 13 47.504+13 40 25.92         22.0 wLEO154F51
         K14Od4K  C2014 09 23.52313 03 13 47.442+13 40 25.76         22.0 wLEO154F51
         K14Od4K  C2014 09 23.53582 03 13 47.408+13 40 25.17         22.0 wLEO154F51
         K14Od4K  C2014 09 23.54866 03 13 47.381+13 40 24.93         22.1 wLEO154F51
         K14Od4K  C2014 10 25.51522 03 11 30.344+13 29 13.35         21.8 wLEO154F51
         K14Od4K  C2014 10 25.52824 03 11 30.281+13 29 13.20         21.7 wLEO154F51
         K14Od4K  C2014 10 25.54118 03 11 30.200+13 29 12.86         21.8 wLEO154F51
         K14Od4K  C2014 10 25.55410 03 11 30.143+13 29 12.36         21.7 wLEO154F51
         K14Od4K  C2014 11 20.47111 03 09 08.662+13 19 30.91         21.6 wLEO154F51
         K14Od4K  C2014 11 20.48240 03 09 08.589+13 19 30.82         21.9 wLEO154F51
         K14Od4K  C2014 11 20.49361 03 09 08.538+13 19 30.41         21.7 wLEO154F51
         K14Od4K  C2014 11 20.50482 03 09 08.481+13 19 30.35         21.7 wLEO154F51
         K14Od4K  C2014 12 12.43851 03 07 16.482+13 12 54.45         21.6 rLEO154F51
         K14Od4K  C2014 12 12.44972 03 07 16.413+13 12 54.33         21.6 rLEO154F51
         K14Od4K  C2014 12 12.46098 03 07 16.392+13 12 54.33         21.5 rLEO154F51
         K14Od4K  C2014 12 12.47218 03 07 16.329+13 12 54.09         21.6 rLEO154F51
         K14Od4K  C2015 01 17.29668 03 05 24.943+13 08 45.12         21.8 wLEO154F51
         K14Od4K  C2015 01 17.31044 03 05 24.934+13 08 45.15         21.7 wLEO154F51
         K14Od4K  C2015 01 17.32425 03 05 24.893+13 08 45.26         21.9 wLEO154F51
         K14Od4K  C2015 01 17.33809 03 05 24.890+13 08 45.19         21.7 wLEO154F51
    
    Observer details:
    F51 Pan-STARRS 1, Haleakala.  Observers B. Gibson, T. Goggia, N. Primak,
        A. Schultz, M. Willman.  Measurers K. Chambers, S. Chastel, Y.-T. Chen,
        L. Denneau, H. Flewelling, M. Holman, M. Huber, R. Jedicke, M. Lackner,
        E. Lilly, H.-W. Lin, E. Magnier, M. Micheli, M. Payne, P. Veres,
        R. Wainscoat, C. Waters, R. Weryk.  1.8-m Ritchey-Chretien + CCD.
    
    Orbital elements:
    2014 OK394
    Epoch 2016 July 31.0 TT = JDT 2457600.5                 MPC
    M  25.21626              (2000.0)            P               Q
    n   0.00359568     Peri.  248.49958     +0.95416300     -0.29392360
    a  42.1970664      Node   128.54868     +0.29429284     +0.88713557
    e   0.1603778      Incl.    4.13610     +0.05444897     +0.35580809
    P 274              H    6.0           G   0.15           U   3
    Residuals in seconds of arc
    101008 F51  0.0   0.0     140228 F51  0.2-  0.1+    141025 F51  0.1+  0.0
    101008 F51  0.1+  0.1-    140228 F51  0.0   0.1+    141025 F51  0.1-  0.0
    101008 F51  0.1+  0.3-    140228 F51  0.2+  0.2+    141025 F51  0.0   0.2-
    101008 F51  0.0   0.0     140228 F51  0.1+  0.2+    141120 F51  0.1+  0.2-
    101008 F51  0.1+  0.1-    140728 F51  0.2+  0.0     141120 F51  0.1-  0.0
    111202 F51  0.2-  0.2+    140728 F51  0.1+  0.2-    141120 F51  0.1+  0.2-
    111202 F51  0.1+  0.2+    140728 F51  0.2+  0.0     141120 F51  0.2+  0.0
    111202 F51  0.1-  0.0     140728 F51  0.1-  0.2-    141212 F51  0.1-  0.1-
    111202 F51  0.2-  0.1+    140831 F51  0.0   0.1-    141212 F51  0.3-  0.1-
    121207 F51  0.1-  0.2+    140831 F51  0.0   0.1-    141212 F51  0.1+  0.1+
    121207 F51  0.1-  0.0     140831 F51  0.1+  0.1+    141212 F51  0.0   0.0
    121207 F51  0.0   0.0     140831 F51  0.1+  0.1+    150117 F51  0.0   0.0
    121207 F51  0.1-  0.2+    140923 F51  0.0   0.2+    150117 F51  0.2+  0.0
    131124 F51  0.1-  0.0     140923 F51  0.3-  0.3+    150117 F51  0.1-  0.1+
    131124 F51  0.0   0.1-    140923 F51  0.2-  0.1-    150117 F51  0.1+  0.0
    131124 F51  0.0   0.2+    140923 F51  0.0   0.1-
    131124 F51  0.1+  0.1+    141025 F51  0.0   0.1-
    
    Ephemeris:
    2014 OK394               a,e,i = 42.20, 0.16, 4                  q = 35.430
    Date    TT    R. A. (2000) Decl.     Delta      r     Elong.  Phase     V
    2016 06 17    03 24 25.1 +14 34 42  37.1529 36.3125    33.7     0.9    21.8
    ...
    2016 07 02    03 25 54.7 +14 39 16  36.9940 36.3162    47.6     1.2    21.8
    ...
    2016 07 10    03 26 35.9 +14 41 10  36.8912 36.3181    55.0     1.3    21.8
    ...
    2016 07 16    03 27 03.4 +14 42 19  36.8074 36.3196    60.6     1.4    21.8
    2016 07 17    03 27 07.7 +14 42 29  36.7929 36.3198    61.6     1.4    21.8
    2016 07 18    03 27 11.9 +14 42 39  36.7783 36.3201    62.5     1.4    21.8
    ...
    2016 07 24    03 27 35.1 +14 43 29  36.6881 36.3216    68.1     1.5    21.8
    ...
    2016 08 01    03 28 00.6 +14 44 14  36.5621 36.3235    75.6     1.6    21.8
    ...
    2016 08 16    03 28 30.6 +14 44 26  36.3156 36.3272    89.9     1.6    21.8
    
    A. U. Tomatic                (C) Copyright 2016 MPC           M.P.E.C. 2016-O154
    

    Read MPEC 2016-O153 Read MPEC 2016-O155


    MPEC number:

    Enter an MPEC number in one of the following forms:

    • 1997-B01 (the full form)
    • J97B01 (the packed version of the full form)
    • B01 (the abbreviated form)